• In Hungary
  • List of Countries
  • For 7 days
  • Water Temperature
  • Satellite Maps
  • Weather Map
  • News
  • Weather Widgets
  • user-avatar
    Login

    Hourly Weather Rokycany

    Today, 15 December, Friday

    Time Temperature Precipitation Wind Pressure Humidity
    00:00 +1°C° 0.1 mm 3 mps 714 mmHg 86%
    01:00 +2°C° 0.1 mm 2 mps 714 mmHg 88%
    02:00 +2°C° 0.2 mm 2 mps 713 mmHg 88%
    03:00 +2°C° 0.2 mm 2 mps 713 mmHg 89%
    04:00 +1°C° 0.2 mm 2 mps 712 mmHg 90%
    05:00 +1°C° 0.4 mm 3 mps 713 mmHg 89%
    06:00 0°C° 0.4 mm 4 mps 713 mmHg 88%
    07:00 +1°C° 0.4 mm 5 mps 713 mmHg 87%
    08:00 +1°C° 0.1 mm 6 mps 714 mmHg 84%
    09:00 +1°C° 0.1 mm 6 mps 715 mmHg 81%
    10:00 0°C° 0.1 mm 7 mps 715 mmHg 78%
    11:00 +1°C° 0 mm 6 mps 716 mmHg 76%
    12:00 +1°C° 0 mm 6 mps 716 mmHg 74%
    13:00 +2°C° 0 mm 6 mps 716 mmHg 72%
    14:00 +1°C° 0 mm 5 mps 716 mmHg 76%
    15:00 +1°C° 0 mm 4 mps 717 mmHg 80%
    16:00 +1°C° 0 mm 3 mps 717 mmHg 83%
    17:00 +1°C° 0 mm 3 mps 717 mmHg 85%
    18:00 +1°C° 0 mm 3 mps 717 mmHg 87%
    19:00 +1°C° 0 mm 3 mps 717 mmHg 89%
    20:00 0°C° 0 mm 3 mps 718 mmHg 89%
    21:00 0°C° 0 mm 3 mps 718 mmHg 90%
    22:00 0°C° 0 mm 3 mps 718 mmHg 90%
    23:00 0°C° 0 mm 3 mps 718 mmHg 91%

    Tomorrow, 16 December, Saturday

    Time Temperature Precipitation Wind Pressure Humidity
    00:00 -1°C° 0 mm 3 mps 718 mmHg 91%
    01:00 -1°C° 0 mm 3 mps 719 mmHg 91%
    02:00 -1°C° 0 mm 3 mps 719 mmHg 90%
    03:00 -1°C° 0 mm 3 mps 719 mmHg 90%
    04:00 -1°C° 0 mm 3 mps 719 mmHg 89%
    05:00 -1°C° 0 mm 3 mps 719 mmHg 89%
    06:00 -1°C° 0 mm 3 mps 720 mmHg 89%
    07:00 -1°C° 0 mm 3 mps 720 mmHg 89%
    08:00 0°C° 0 mm 3 mps 721 mmHg 88%
    09:00 0°C° 0 mm 3 mps 721 mmHg 86%
    10:00 -1°C° 0 mm 4 mps 722 mmHg 84%
    11:00 0°C° 0 mm 4 mps 722 mmHg 82%
    12:00 0°C° 0 mm 4 mps 723 mmHg 79%
    13:00 +1°C° 0 mm 4 mps 723 mmHg 77%
    14:00 0°C° 0.1 mm 4 mps 723 mmHg 79%
    15:00 0°C° 0.1 mm 4 mps 724 mmHg 82%
    16:00 0°C° 0.1 mm 3 mps 724 mmHg 84%
    17:00 0°C° 0.1 mm 3 mps 725 mmHg 85%
    18:00 0°C° 0.1 mm 3 mps 725 mmHg 86%
    19:00 -1°C° 0.1 mm 3 mps 726 mmHg 87%
    20:00 -2°C° 0 mm 4 mps 726 mmHg 87%
    21:00 -2°C° 0 mm 4 mps 727 mmHg 88%
    22:00 -2°C° 0 mm 4 mps 727 mmHg 88%
    23:00 -2°C° 0 mm 4 mps 728 mmHg 88%

    Day after tomorrow, 17 December, Sunday

    Time Temperature Precipitation Wind Pressure Humidity
    00:00 -2°C° 0 mm 4 mps 728 mmHg 88%
    01:00 -3°C° 0 mm 4 mps 728 mmHg 88%
    02:00 -2°C° 0 mm 4 mps 729 mmHg 87%
    03:00 -2°C° 0 mm 5 mps 729 mmHg 86%
    04:00 -2°C° 0 mm 5 mps 729 mmHg 86%
    05:00 -2°C° 0.1 mm 5 mps 729 mmHg 86%
    06:00 -2°C° 0.1 mm 5 mps 730 mmHg 86%
    07:00 -2°C° 0.1 mm 5 mps 730 mmHg 86%
    08:00 -2°C° 0.1 mm 5 mps 731 mmHg 84%
    09:00 -2°C° 0.1 mm 5 mps 731 mmHg 82%
    10:00 -2°C° 0.1 mm 6 mps 732 mmHg 81%
    11:00 -2°C° 0.2 mm 6 mps 732 mmHg 79%
    12:00 -2°C° 0.2 mm 6 mps 732 mmHg 78%
    13:00 -2°C° 0.2 mm 6 mps 732 mmHg 77%
    14:00 -2°C° 0.1 mm 6 mps 733 mmHg 79%
    15:00 -1°C° 0.1 mm 5 mps 733 mmHg 81%
    16:00 -2°C° 0.1 mm 5 mps 733 mmHg 82%
    17:00 -2°C° 0.1 mm 5 mps 733 mmHg 84%
    18:00 -2°C° 0.1 mm 5 mps 734 mmHg 85%
    19:00 -2°C° 0.1 mm 5 mps 734 mmHg 86%
    20:00 -2°C° 0.1 mm 4 mps 734 mmHg 87%
    21:00 -2°C° 0.1 mm 4 mps 735 mmHg 87%
    22:00 -2°C° 0.1 mm 4 mps 735 mmHg 88%
    23:00 -2°C° 0.1 mm 5 mps 735 mmHg 87%

    18 December, Monday

    Time Temperature Precipitation Wind Pressure Humidity
    00:00 -2°C° 0.1 mm 5 mps 735 mmHg 87%
    01:00 -2°C° 0.1 mm 5 mps 735 mmHg 87%
    02:00 -3°C° 0.1 mm 6 mps 734 mmHg 85%
    03:00 -3°C° 0.1 mm 6 mps 734 mmHg 84%
    04:00 -3°C° 0.1 mm 6 mps 733 mmHg 82%
    05:00 -3°C° 0.3 mm 6 mps 733 mmHg 84%
    06:00 -3°C° 0.3 mm 7 mps 732 mmHg 85%
    07:00 -3°C° 0.3 mm 7 mps 731 mmHg 87%
    08:00 -2°C° 1 mm 8 mps 731 mmHg 86%
    09:00 -2°C° 1 mm 8 mps 730 mmHg 86%
    10:00 -1°C° 1 mm 8 mps 730 mmHg 85%
    11:00 -1°C° 0.3 mm 7 mps 729 mmHg 87%
    12:00 +1°C° 0.3 mm 6 mps 729 mmHg 88%
    13:00 +1°C° 0.3 mm 5 mps 729 mmHg 89%
    14:00 +1°C° 0.1 mm 4 mps 729 mmHg 89%
    15:00 0°C° 0.1 mm 4 mps 730 mmHg 88%
    16:00 0°C° 0.1 mm 4 mps 730 mmHg 88%
    17:00 0°C° 0.1 mm 4 mps 731 mmHg 89%
    18:00 0°C° 0.1 mm 4 mps 731 mmHg 89%
    19:00 0°C° 0.1 mm 4 mps 732 mmHg 90%
    20:00 0°C° 0.1 mm 4 mps 732 mmHg 91%
    21:00 +1°C° 0.1 mm 3 mps 733 mmHg 91%
    22:00 +1°C° 0.1 mm 3 mps 734 mmHg 92%
    23:00 +1°C° 0.1 mm 3 mps 734 mmHg 93%

    19 December, Tuesday

    Time Temperature Precipitation Wind Pressure Humidity
    00:00 +1°C° 0.1 mm 3 mps 735 mmHg 93%
    01:00 +1°C° 0.1 mm 3 mps 735 mmHg 94%
    02:00 +1°C° 0.1 mm 3 mps 736 mmHg 94%
    03:00 +1°C° 0.1 mm 3 mps 736 mmHg 94%
    04:00 +1°C° 0.1 mm 3 mps 736 mmHg 94%
    05:00 +1°C° 0.1 mm 3 mps 737 mmHg 94%
    06:00 +1°C° 0.1 mm 3 mps 738 mmHg 94%
    07:00 +1°C° 0.1 mm 3 mps 738 mmHg 94%
    08:00 +1°C° 0.1 mm 3 mps 739 mmHg 94%
    09:00 +1°C° 0.1 mm 3 mps 739 mmHg 94%
    10:00 +2°C° 0.1 mm 2 mps 740 mmHg 94%
    11:00 +2°C° 0.1 mm 2 mps 740 mmHg 93%
    12:00 +2°C° 0.1 mm 2 mps 740 mmHg 92%
    13:00 +2°C° 0.1 mm 2 mps 741 mmHg 92%
    14:00 +2°C° 0.1 mm 2 mps 741 mmHg 92%
    15:00 +1°C° 0.1 mm 2 mps 741 mmHg 92%
    16:00 +2°C° 0.1 mm 1 mps 741 mmHg 92%
    17:00 +2°C° 0 mm 1 mps 741 mmHg 93%
    18:00 +1°C° 0 mm 1 mps 742 mmHg 93%
    19:00 +1°C° 0 mm 1 mps 742 mmHg 94%
    20:00 +1°C° 0 mm 1 mps 742 mmHg 94%
    21:00 -1°C° 0 mm 0 mps 742 mmHg 94%
    22:00 -1°C° 0 mm 0 mps 743 mmHg 94%
    23:00 -1°C° 0 mm 0 mps 743 mmHg 94%

    20 December, Wednesday

    Time Temperature Precipitation Wind Pressure Humidity
    00:00 0°C° 0 mm 1 mps 743 mmHg 94%
    01:00 -1°C° 0 mm 1 mps 742 mmHg 94%
    02:00 -1°C° 0 mm 1 mps 742 mmHg 94%
    03:00 -1°C° 0 mm 1 mps 742 mmHg 94%
    04:00 -1°C° 0 mm 1 mps 742 mmHg 94%
    05:00 0°C° 0 mm 1 mps 742 mmHg 94%
    06:00 0°C° 0 mm 1 mps 742 mmHg 94%
    07:00 0°C° 0 mm 1 mps 742 mmHg 94%
    08:00 +1°C° 0 mm 1 mps 743 mmHg 93%
    09:00 -1°C° 0 mm 2 mps 743 mmHg 93%
    10:00 +1°C° 0 mm 2 mps 743 mmHg 92%
    11:00 +1°C° 0 mm 2 mps 743 mmHg 92%
    12:00 +2°C° 0 mm 2 mps 743 mmHg 92%
    13:00 +1°C° 0 mm 3 mps 742 mmHg 91%
    14:00 +1°C° 0 mm 3 mps 742 mmHg 92%
    15:00 0°C° 0 mm 3 mps 742 mmHg 92%
    16:00 0°C° 0 mm 3 mps 741 mmHg 92%
    17:00 0°C° 0 mm 3 mps 741 mmHg 91%
    18:00 0°C° 0 mm 3 mps 741 mmHg 90%
    19:00 -1°C° 0 mm 4 mps 741 mmHg 90%
    20:00 -1°C° 0.2 mm 4 mps 741 mmHg 90%
    21:00 0°C° 0.2 mm 4 mps 741 mmHg 90%
    22:00 0°C° 0.2 mm 5 mps 741 mmHg 90%
    23:00 0°C° 0.4 mm 5 mps 740 mmHg 91%
    Show more